Home > Weather > Germantown > Past weeks

Flag for U.S.A. Weather for the Past 2 Weeks in Germantown, Maryland, U.S.A.

Now
23 °F

Clear.


Feels Like: 23 °F
Forecast: 26 / 46 °F
Wind: No wind

Location: Frederick Municipal Airport

Current Time: Feb 7, 2016 at 3:52:01 AM

Latest Report: Feb 7, 2016 at 3:20 AM


Visibility: 10 mi

Pressure: 30.23 "Hg

Humidity: 100%

Dew point: 23 °F

Location of GermantownLocation

Historic Weather in Germantown — Graph

°F

Germantown Temperature Yesterday

Maximum temperature yesterday: 41 °F (at 2:50 PM)
Minimum temperature yesterday: 23 °F (at 2:00 AM)
Average temperature yesterday: 30 °F

High & Low Weather Summary for the Past Weeks

 TemperatureHumidityPressure
High55 °F (Jan 31, 4:51 PM)100% (Jan 23, 2:00 AM)30.48 "Hg (Jan 23, 2:00 AM)
Low3 °F (Jan 25, 4:10 AM)42% (Jan 30, 2:50 PM)29.58 "Hg (Jan 29, 4:35 AM)
Average31 °F84%30.06 "Hg
* Reported Jan 23 2:00 AM — Feb 7 2:40 AM, Germantown, Weather by CustomWeather, © 2016

Note: Actual official high and low records may vary slightly from our data, if they occured in-between our weather recording intervals... More about our weather records

Advertising

Germantown Weather History for the Previous 24 Hours

 ConditionsComfort  
Time TempWeatherWind HumidityBarometerVisibility
2:40 AM
Sun, Feb 7
25 °FClear.No wind93%30.25 "Hg10 mi
2:20 AM23 °FClear.3 mph100%30.26 "Hg10 mi
2:00 AM27 °FClear.No wind100%30.26 "Hg10 mi
1:40 AM27 °FClear.No wind100%30.26 "Hg10 mi
1:20 AM25 °FClear.No wind93%30.26 "Hg10 mi
1:00 AM25 °FClear.No wind100%30.26 "Hg10 mi
12:40 AM27 °FClear.No wind100%30.26 "Hg10 mi
12:20 AM27 °FClear.No wind100%30.26 "Hg10 mi
12:00 AM27 °FClear.No wind100%30.27 "Hg10 mi
11:40 PM
Sat, Feb 6
28 °FClear.No wind93%30.27 "Hg10 mi
11:00 PM28 °FClear.No wind93%30.29 "Hg10 mi
10:40 PM28 °FClear.No wind93%30.30 "Hg10 mi
10:00 PM28 °FClear.No wind86%30.31 "Hg10 mi
9:20 PM30 °FClear.No wind86%30.32 "Hg10 mi
9:00 PM30 °FClear.No wind93%30.32 "Hg10 mi
8:40 PM30 °FClear.No wind93%30.32 "Hg10 mi
8:00 PM32 °FClear.No wind75%30.31 "Hg10 mi
6:48 PM36 °FClear.No wind60%30.31 "Hg10 mi
5:50 PM39 °FClear.3 mph52%30.31 "Hg10 mi
4:48 PM39 °FSunny.5 mph61%30.31 "Hg10 mi
3:50 PM41 °FSunny.7 mph53%30.31 "Hg10 mi
2:50 PM41 °FSunny.12 mph53%30.33 "Hg10 mi
1:50 PM39 °FSunny.12 mph56%30.35 "Hg10 mi
12:50 PM39 °FSunny.12 mph56%30.39 "Hg10 mi
11:52 AM39 °FSunny.12 mph56%30.42 "Hg10 mi
10:47 AM37 °FSunny.9 mph60%30.46 "Hg10 mi
9:47 AM34 °FSunny.9 mph70%30.47 "Hg10 mi
8:52 AM28 °FSunny.No wind86%30.47 "Hg10 mi
7:52 AM25 °FSunny.3 mph100%30.48 "Hg10 mi
6:50 AM23 °FClear.No wind100%30.46 "Hg10 mi
5:20 AM25 °FClear.No wind93%30.45 "Hg10 mi
5:00 AM25 °FClear.3 mph93%30.44 "Hg10 mi
4:40 AM25 °FClear.No wind93%30.43 "Hg10 mi
4:20 AM25 °FClear.No wind93%30.43 "Hg10 mi
4:00 AM23 °FClear.3 mph100%30.43 "Hg10 mi
3:40 AM23 °FClear.No wind100%30.43 "Hg10 mi
3:20 AM23 °FClear.No wind93%30.43 "Hg10 mi
3:00 AM27 °FClear.No wind93%30.43 "Hg10 mi
Weather by CustomWeather, © 2016

See weather overviewHow to use our weather pages